Regional Weather Roundup
Issued by NWS

Home | Current Version | Previous Version | Graphics & Text | Print | Product List | Glossary On
Versions: 1 2 3 4 5 6 7 8 9 10 11 12 13 14 15 16 17 18 19 20 21 22 23 24 25 26 27 28 29 30 31 32 33 34 35 36 37 38 39 40 41 42 43 44 45 46 47 48 49 50
000
ASUS43 KBIS 100720
RWRND

NORTH DAKOTA REGIONAL WEATHER ROUNDUP
NATIONAL WEATHER SERVICE BISMARCK ND
200 AM CDT THU JUL 10 2014

NOTE: "FAIR" INDICATES FEW OR NO CLOUDS BELOW 12,000 FEET WITH NO
SIGNIFICANT WEATHER AND/OR OBSTRUCTIONS TO VISIBILITY.


NDZ001>003-009>011-017-100800-
NORTHWEST NORTH DAKOTA

CITY           SKY/WX    TMP DP  RH WIND       PRES   REMARKS
WILLISTON      CLEAR     71  56  58 S6        29.82F
MINOT          CLEAR     63  57  81 SE8       29.87F
MINOT AFB      CLEAR     60  60  99 SE6       29.86F
$$

NDZ018>021-031>035-040>046-100800-
SOUTHWEST NORTH DAKOTA

CITY           SKY/WX    TMP DP  RH WIND       PRES   REMARKS
BISMARCK       CLEAR     64  58  80 S7        29.94F
DICKINSON      CLEAR     61  55  81 S14       29.89F
GARRISON         N/A     63  60  90 S6        29.90F
HETTINGER ARPT CLEAR     59  53  80 SE6       29.96S
$$

NDZ004>008-012>016-024-026-027-054-100800-
NORTHEAST NORTH DAKOTA

CITY           SKY/WX    TMP DP  RH WIND       PRES   REMARKS
GRAND FORKS    CLEAR     56  52  86 S3        29.96S
GRND FRKS AFB  CLEAR     57  52  84 S6        29.97S
DEVILS LAKE    CLEAR     63  52  67 S12       29.93F
$$

NDZ022-023-025-028>030-036>039-047>053-100800-
SOUTHEAST NORTH DAKOTA

CITY           SKY/WX    TMP DP  RH WIND       PRES   REMARKS
FARGO          CLEAR     62  51  67 SE6       29.98S
JAMESTOWN      CLEAR     61  55  81 S7        29.97S
$$



USA.gov is the U.S. government's official web portal to all federal, state and local government web resources and services.